Lee's Summit, MO

6:07 AM CST on January 18, 2018 (GMT -0600)
Lee's Summit Municipal

Weather History for KLXT - January, 2014

Change the Weather History Date:

Thursday, January 16, 2014

  Actual Average (KOJC) Record (KOJC)
Temperature  
Mean Temperature 34 °F -  
Max Temperature 46 °F 39 °F 68 °F (1952)
Min Temperature 19 °F 19 °F -12 °F (1977)
Degree Days  
Heating Degree Days 32    
Moisture  
Dew Point 18 °F    
Average Humidity 47    
Maximum Humidity 65    
Minimum Humidity 32    
Precipitation  
Precipitation 0.00 in - - ()
Sea Level Pressure  
Sea Level Pressure 29.88 in    
Wind  
Wind Speed 16 mph (WNW)    
Max Wind Speed 32 mph    
Max Gust Speed 51 mph    
Visibility 10 miles    
Events Snow    
Averages and records for this station are not official NWS values.
T = Trace of Precipitation, MM = Missing Value Source: NWS Daily Summary

Daily Weather History Graph

Daily Weather History Graph

Search for Another Location

Airport or City:

Trip Planner

Search our weather history database for the weather conditions in past years. The results will help you decide how hot, cold, wet, or windy it might be!

Date:

Astronomy

Jan. 16, 2014 Rise Set
Actual Time 7:34 AM CST 5:20 PM CST
Civil Twilight 7:05 AM CST 5:49 PM CST
Nautical Twilight 6:32 AM CST 6:22 PM CST
Astronomical Twilight 6:00 AM CST 6:54 PM CST
Moon 6:12 PM CST (1/16) 7:29 AM CST (1/16)
Length of Visible Light 10h 44m
Length of Day
9h 46m
Full, 100% of the Moon is Illuminated
Jan 16
Full
Jan 23
Last Quarter
Jan 30
New
Feb 6
First Quarter
Feb 14
Full

Hourly Weather History & Observations

Time (CST) Temp. Windchill Dew Point Humidity Pressure Visibility Wind Dir Wind Speed Gust Speed Precip Events Conditions
12:53 AM 37.0 °F 28.9 °F 21.9 °F 54% 29.83 in 10.0 mi SW 12.7 mph - N/A   Overcast
1:53 AM 37.0 °F 29.3 °F 21.9 °F 54% 29.82 in 10.0 mi SW 11.5 mph - N/A   Overcast
2:53 AM 36.0 °F 29.0 °F 23.0 °F 59% 29.83 in 10.0 mi WSW 9.2 mph - N/A   Clear
3:53 AM 37.9 °F 32.1 °F 23.0 °F 55% 29.82 in 10.0 mi WSW 8.1 mph - N/A   Mostly Cloudy
4:53 AM 34.0 °F 27.2 °F 23.0 °F 64% 29.78 in 10.0 mi WSW 8.1 mph - N/A   Clear
5:53 AM 35.1 °F 28.6 °F 24.1 °F 64% 29.80 in 10.0 mi WSW 8.1 mph - N/A   Clear
6:53 AM 42.1 °F 35.2 °F 25.0 °F 51% 29.81 in 10.0 mi West 12.7 mph - N/A   Clear
7:53 AM 42.1 °F 33.9 °F 25.0 °F 51% 29.82 in 10.0 mi West 17.3 mph 24.2 mph N/A   Clear
8:53 AM 43.0 °F 34.0 °F 21.0 °F 42% 29.85 in 10.0 mi NW 21.9 mph 28.8 mph N/A   Clear
9:53 AM 45.0 °F 36.0 °F 19.9 °F 37% 29.86 in 10.0 mi NW 25.3 mph 35.7 mph N/A   Partly Cloudy
10:53 AM 45.0 °F 35.8 °F 19.0 °F 36% 29.87 in 10.0 mi NW 26.5 mph 39.1 mph N/A   Partly Cloudy
11:53 AM 46.0 °F 37.8 °F 18.0 °F 33% 29.85 in 10.0 mi NW 23.0 mph 34.5 mph N/A   Mostly Cloudy
12:53 PM 45.0 °F 36.6 °F 17.1 °F 33% 29.83 in 10.0 mi NW 21.9 mph 29.9 mph N/A   Overcast
1:53 PM 45.0 °F 37.1 °F 18.0 °F 34% 29.83 in 10.0 mi NW 19.6 mph 34.5 mph N/A   Overcast
2:53 PM 44.1 °F 35.4 °F 18.0 °F 35% 29.84 in 10.0 mi WNW 21.9 mph 31.1 mph N/A   Mostly Cloudy
3:53 PM 44.1 °F 35.0 °F 16.0 °F 32% 29.86 in 10.0 mi WNW 24.2 mph 35.7 mph N/A   Overcast
4:53 PM 41.0 °F 31.1 °F 19.0 °F 41% 29.88 in 10.0 mi NW 23.0 mph 32.2 mph N/A   Overcast
5:53 PM 39.9 °F 29.2 °F 19.0 °F 43% 29.89 in 10.0 mi NW 25.3 mph 42.6 mph N/A   Mostly Cloudy
6:53 PM 36.0 °F 24.4 °F 21.9 °F 57% 29.94 in 5.0 mi NNW 23.0 mph 42.6 mph 0.00 in Snow Light Snow
7:53 PM 32.0 °F 17.2 °F 9.0 °F 38% 29.98 in 10.0 mi NW 32.2 mph 50.6 mph 0.00 in   Partly Cloudy
8:53 PM 27.0 °F 13.2 °F 9.0 °F 47% 30.02 in 10.0 mi NNW 20.7 mph 29.9 mph N/A   Scattered Clouds
9:53 PM 25.0 °F 9.9 °F 9.0 °F 51% 30.04 in 10.0 mi NW 23.0 mph 35.7 mph N/A   Overcast
10:53 PM 21.9 °F 6.2 °F 8.1 °F 55% 30.07 in 10.0 mi NW 21.9 mph 44.9 mph N/A   Overcast
11:53 PM 19.9 °F 5.7 °F 10.0 °F 65% 30.08 in 10.0 mi NW 16.1 mph 26.5 mph 0.00 in   Overcast